﻿測定場所 (Monitoring sites),日付 (Measurement date),時間 (Measurement time),線量率 最大値 (max) μGy/h,線量率 最小値 (min) μGy/h,線量率 平均値 (average) μGy/h,
新宿 (Shinjuku),2012-09-16,23:01～24:00,0.0498,0.0434,0.0463,
新宿 (Shinjuku),2012-09-16,22:01～23:00,0.0504,0.0435,0.0464,
新宿 (Shinjuku),2012-09-16,21:01～22:00,0.0500,0.0439,0.0466,
新宿 (Shinjuku),2012-09-16,20:01～21:00,0.0504,0.0429,0.0461,
新宿 (Shinjuku),2012-09-16,19:01～20:00,0.0507,0.0429,0.0465,
新宿 (Shinjuku),2012-09-16,18:01～19:00,0.0499,0.0438,0.0464,
新宿 (Shinjuku),2012-09-16,17:01～18:00,0.0491,0.0428,0.0462,
新宿 (Shinjuku),2012-09-16,16:01～17:00,0.0507,0.0432,0.0466,
新宿 (Shinjuku),2012-09-16,15:01～16:00,0.0507,0.0442,0.0473,
新宿 (Shinjuku),2012-09-16,14:01～15:00,0.0517,0.0435,0.0475,
新宿 (Shinjuku),2012-09-16,13:01～14:00,0.0512,0.0417,0.0464,
新宿 (Shinjuku),2012-09-16,12:01～13:00,0.0496,0.0429,0.0466,
新宿 (Shinjuku),2012-09-16,11:01～12:00,0.0505,0.0434,0.0466,
新宿 (Shinjuku),2012-09-16,10:01～11:00,0.0497,0.0426,0.0466,
新宿 (Shinjuku),2012-09-16,09:01～10:00,0.0496,0.0413,0.0467,
新宿 (Shinjuku),2012-09-16,08:01～09:00,0.0513,0.0437,0.0471,
新宿 (Shinjuku),2012-09-16,07:01～08:00,0.0507,0.0449,0.0474,
新宿 (Shinjuku),2012-09-16,06:01～07:00,0.0508,0.0441,0.0477,
新宿 (Shinjuku),2012-09-16,05:01～06:00,0.0512,0.0434,0.0475,
新宿 (Shinjuku),2012-09-16,04:01～05:00,0.0500,0.0437,0.0471,
新宿 (Shinjuku),2012-09-16,03:01～04:00,0.0510,0.0432,0.0471,
新宿 (Shinjuku),2012-09-16,02:01～03:00,0.0500,0.0422,0.0464,
新宿 (Shinjuku),2012-09-16,01:01～02:00,0.0491,0.0423,0.0464,
新宿 (Shinjuku),2012-09-16,00:01～01:00,0.0496,0.0420,0.0459,
新宿 (Shinjuku),2012-09-15,23:01～24:00,0.0501,0.0413,0.0463,
新宿 (Shinjuku),2012-09-15,22:01～23:00,0.0505,0.0432,0.0465,
新宿 (Shinjuku),2012-09-15,21:01～22:00,0.0498,0.0423,0.0464,
新宿 (Shinjuku),2012-09-15,20:01～21:00,0.0496,0.0431,0.0465,
新宿 (Shinjuku),2012-09-15,19:01～20:00,0.0495,0.0438,0.0465,
新宿 (Shinjuku),2012-09-15,18:01～19:00,0.0500,0.0422,0.0466,
新宿 (Shinjuku),2012-09-15,17:01～18:00,0.0504,0.0422,0.0461,
新宿 (Shinjuku),2012-09-15,16:01～17:00,0.0498,0.0424,0.0468,
新宿 (Shinjuku),2012-09-15,15:01～16:00,0.0497,0.0442,0.0467,
新宿 (Shinjuku),2012-09-15,14:01～15:00,0.0505,0.0434,0.0465,
新宿 (Shinjuku),2012-09-15,13:01～14:00,0.0502,0.0430,0.0464,
新宿 (Shinjuku),2012-09-15,12:01～13:00,0.0507,0.0443,0.0469,
新宿 (Shinjuku),2012-09-15,11:01～12:00,0.0517,0.0434,0.0470,
新宿 (Shinjuku),2012-09-15,10:01～11:00,0.0506,0.0430,0.0470,
新宿 (Shinjuku),2012-09-15,09:01～10:00,0.0504,0.0439,0.0471,
新宿 (Shinjuku),2012-09-15,08:01～09:00,0.0513,0.0450,0.0477,
新宿 (Shinjuku),2012-09-15,07:01～08:00,0.0522,0.0447,0.0477,
新宿 (Shinjuku),2012-09-15,06:01～07:00,0.0503,0.0436,0.0470,
新宿 (Shinjuku),2012-09-15,05:01～06:00,0.0501,0.0440,0.0467,
新宿 (Shinjuku),2012-09-15,04:01～05:00,0.0496,0.0435,0.0466,
新宿 (Shinjuku),2012-09-15,03:01～04:00,0.0500,0.0439,0.0465,
新宿 (Shinjuku),2012-09-15,02:01～03:00,0.0500,0.0434,0.0463,
新宿 (Shinjuku),2012-09-15,01:01～02:00,0.0508,0.0443,0.0466,
新宿 (Shinjuku),2012-09-15,00:01～01:00,0.0508,0.0434,0.0465,
新宿 (Shinjuku),2012-09-14,23:01～24:00,0.0496,0.0438,0.0465,
新宿 (Shinjuku),2012-09-14,22:01～23:00,0.0493,0.0424,0.0464,
新宿 (Shinjuku),2012-09-14,21:01～22:00,0.0499,0.0433,0.0468,
新宿 (Shinjuku),2012-09-14,20:01～21:00,0.0492,0.0442,0.0465,
新宿 (Shinjuku),2012-09-14,19:01～20:00,0.0503,0.0430,0.0468,
新宿 (Shinjuku),2012-09-14,18:01～19:00,0.0496,0.0431,0.0461,
新宿 (Shinjuku),2012-09-14,17:01～18:00,0.0491,0.0434,0.0464,
新宿 (Shinjuku),2012-09-14,16:01～17:00,0.0507,0.0440,0.0469,
新宿 (Shinjuku),2012-09-14,15:01～16:00,0.0503,0.0445,0.0473,
新宿 (Shinjuku),2012-09-14,14:01～15:00,0.0513,0.0442,0.0474,
新宿 (Shinjuku),2012-09-14,13:01～14:00,0.0507,0.0430,0.0470,
新宿 (Shinjuku),2012-09-14,12:01～13:00,0.0502,0.0437,0.0469,
新宿 (Shinjuku),2012-09-14,11:01～12:00,0.0502,0.0443,0.0470,
新宿 (Shinjuku),2012-09-14,10:01～11:00,0.0526,0.0439,0.0473,
新宿 (Shinjuku),2012-09-14,09:01～10:00,0.0518,0.0453,0.0478,
新宿 (Shinjuku),2012-09-14,08:01～09:00,0.0514,0.0445,0.0481,
新宿 (Shinjuku),2012-09-14,07:01～08:00,0.0529,0.0447,0.0480,
新宿 (Shinjuku),2012-09-14,06:01～07:00,0.0508,0.0436,0.0474,
新宿 (Shinjuku),2012-09-14,05:01～06:00,0.0501,0.0438,0.0473,
新宿 (Shinjuku),2012-09-14,04:01～05:00,0.0501,0.0448,0.0472,
新宿 (Shinjuku),2012-09-14,03:01～04:00,0.0505,0.0441,0.0469,
新宿 (Shinjuku),2012-09-14,02:01～03:00,0.0501,0.0440,0.0468,
新宿 (Shinjuku),2012-09-14,01:01～02:00,0.0516,0.0445,0.0474,
新宿 (Shinjuku),2012-09-14,00:01～01:00,0.0507,0.0448,0.0473,
新宿 (Shinjuku),2012-09-13,23:01～24:00,0.0520,0.0439,0.0477,
新宿 (Shinjuku),2012-09-13,22:01～23:00,0.0500,0.0439,0.0471,
新宿 (Shinjuku),2012-09-13,21:01～22:00,0.0507,0.0443,0.0476,
新宿 (Shinjuku),2012-09-13,20:01～21:00,0.0515,0.0438,0.0471,
新宿 (Shinjuku),2012-09-13,19:01～20:00,0.0500,0.0447,0.0473,
新宿 (Shinjuku),2012-09-13,18:01～19:00,0.0507,0.0428,0.0469,
新宿 (Shinjuku),2012-09-13,17:01～18:00,0.0503,0.0444,0.0474,
新宿 (Shinjuku),2012-09-13,16:01～17:00,0.0512,0.0445,0.0473,
新宿 (Shinjuku),2012-09-13,15:01～16:00,0.0508,0.0437,0.0471,
新宿 (Shinjuku),2012-09-13,14:01～15:00,0.0505,0.0431,0.0470,
新宿 (Shinjuku),2012-09-13,13:01～14:00,0.0513,0.0440,0.0473,
新宿 (Shinjuku),2012-09-13,12:01～13:00,0.0516,0.0440,0.0473,
新宿 (Shinjuku),2012-09-13,11:01～12:00,0.0510,0.0441,0.0475,
新宿 (Shinjuku),2012-09-13,10:01～11:00,0.0508,0.0445,0.0478,
新宿 (Shinjuku),2012-09-13,09:01～10:00,0.0511,0.0449,0.0478,
新宿 (Shinjuku),2012-09-13,08:01～09:00,0.0524,0.0454,0.0483,
新宿 (Shinjuku),2012-09-13,07:01～08:00,0.0514,0.0447,0.0483,
新宿 (Shinjuku),2012-09-13,06:01～07:00,0.0501,0.0441,0.0477,
新宿 (Shinjuku),2012-09-13,05:01～06:00,0.0510,0.0447,0.0474,
新宿 (Shinjuku),2012-09-13,04:01～05:00,0.0509,0.0437,0.0471,
新宿 (Shinjuku),2012-09-13,03:01～04:00,0.0503,0.0438,0.0465,
新宿 (Shinjuku),2012-09-13,02:01～03:00,0.0498,0.0428,0.0463,
新宿 (Shinjuku),2012-09-13,01:01～02:00,0.0491,0.0435,0.0463,
新宿 (Shinjuku),2012-09-13,00:01～01:00,0.0493,0.0439,0.0464,
新宿 (Shinjuku),2012-09-12,23:01～24:00,0.0517,0.0425,0.0467,
新宿 (Shinjuku),2012-09-12,22:01～23:00,0.0509,0.0434,0.0462,
新宿 (Shinjuku),2012-09-12,21:01～22:00,0.0493,0.0440,0.0466,
新宿 (Shinjuku),2012-09-12,20:01～21:00,0.0492,0.0429,0.0463,
新宿 (Shinjuku),2012-09-12,19:01～20:00,0.0490,0.0433,0.0466,
新宿 (Shinjuku),2012-09-12,18:01～19:00,0.0495,0.0431,0.0466,
新宿 (Shinjuku),2012-09-12,17:01～18:00,0.0485,0.0433,0.0461,
新宿 (Shinjuku),2012-09-12,16:01～17:00,0.0503,0.0430,0.0467,
新宿 (Shinjuku),2012-09-12,15:01～16:00,0.0509,0.0431,0.0470,
新宿 (Shinjuku),2012-09-12,14:01～15:00,0.0505,0.0434,0.0467,
新宿 (Shinjuku),2012-09-12,13:01～14:00,0.0515,0.0442,0.0472,
新宿 (Shinjuku),2012-09-12,12:01～13:00,0.0513,0.0443,0.0472,
新宿 (Shinjuku),2012-09-12,11:01～12:00,0.0511,0.0445,0.0470,
新宿 (Shinjuku),2012-09-12,10:01～11:00,0.0506,0.0446,0.0477,
新宿 (Shinjuku),2012-09-12,09:01～10:00,0.0513,0.0442,0.0478,
新宿 (Shinjuku),2012-09-12,08:01～09:00,0.0522,0.0443,0.0480,
新宿 (Shinjuku),2012-09-12,07:01～08:00,0.0507,0.0443,0.0477,
新宿 (Shinjuku),2012-09-12,06:01～07:00,0.0514,0.0442,0.0475,
新宿 (Shinjuku),2012-09-12,05:01～06:00,0.0504,0.0428,0.0474,
新宿 (Shinjuku),2012-09-12,04:01～05:00,0.0503,0.0453,0.0478,
新宿 (Shinjuku),2012-09-12,03:01～04:00,0.0529,0.0460,0.0489,
新宿 (Shinjuku),2012-09-12,02:01～03:00,0.0511,0.0432,0.0474,
新宿 (Shinjuku),2012-09-12,01:01～02:00,0.0519,0.0439,0.0473,
新宿 (Shinjuku),2012-09-12,00:01～01:00,0.0498,0.0442,0.0469,
新宿 (Shinjuku),2012-09-11,23:01～24:00,0.0501,0.0432,0.0469,
新宿 (Shinjuku),2012-09-11,22:01～23:00,0.0510,0.0432,0.0467,
新宿 (Shinjuku),2012-09-11,21:01～22:00,0.0496,0.0420,0.0463,
新宿 (Shinjuku),2012-09-11,20:01～21:00,0.0491,0.0430,0.0467,
新宿 (Shinjuku),2012-09-11,19:01～20:00,0.0502,0.0419,0.0466,
新宿 (Shinjuku),2012-09-11,18:01～19:00,0.0494,0.0440,0.0467,
新宿 (Shinjuku),2012-09-11,17:01～18:00,0.0499,0.0426,0.0462,
新宿 (Shinjuku),2012-09-11,16:01～17:00,0.0503,0.0437,0.0464,
新宿 (Shinjuku),2012-09-11,15:01～16:00,0.0517,0.0443,0.0468,
新宿 (Shinjuku),2012-09-11,14:01～15:00,0.0500,0.0436,0.0466,
新宿 (Shinjuku),2012-09-11,13:01～14:00,0.0502,0.0442,0.0471,
新宿 (Shinjuku),2012-09-11,12:01～13:00,0.0500,0.0427,0.0471,
新宿 (Shinjuku),2012-09-11,11:01～12:00,0.0510,0.0442,0.0468,
新宿 (Shinjuku),2012-09-11,10:01～11:00,0.0509,0.0430,0.0466,
新宿 (Shinjuku),2012-09-11,09:01～10:00,0.0497,0.0424,0.0466,
新宿 (Shinjuku),2012-09-11,08:01～09:00,0.0511,0.0442,0.0472,
新宿 (Shinjuku),2012-09-11,07:01～08:00,0.0497,0.0433,0.0471,
新宿 (Shinjuku),2012-09-11,06:01～07:00,0.0495,0.0439,0.0464,
新宿 (Shinjuku),2012-09-11,05:01～06:00,0.0484,0.0417,0.0462,
新宿 (Shinjuku),2012-09-11,04:01～05:00,0.0497,0.0433,0.0462,
新宿 (Shinjuku),2012-09-11,03:01～04:00,0.0499,0.0429,0.0461,
新宿 (Shinjuku),2012-09-11,02:01～03:00,0.0500,0.0424,0.0462,
新宿 (Shinjuku),2012-09-11,01:01～02:00,0.0493,0.0431,0.0464,
新宿 (Shinjuku),2012-09-11,00:01～01:00,0.0497,0.0435,0.0465,
新宿 (Shinjuku),2012-09-10,23:01～24:00,0.0495,0.0433,0.0465,
新宿 (Shinjuku),2012-09-10,22:01～23:00,0.0504,0.0432,0.0464,
新宿 (Shinjuku),2012-09-10,21:01～22:00,0.0494,0.0434,0.0462,
新宿 (Shinjuku),2012-09-10,20:01～21:00,0.0500,0.0428,0.0461,
新宿 (Shinjuku),2012-09-10,19:01～20:00,0.0499,0.0428,0.0462,
新宿 (Shinjuku),2012-09-10,18:01～19:00,0.0487,0.0433,0.0459,
新宿 (Shinjuku),2012-09-10,17:01～18:00,0.0492,0.0419,0.0459,
新宿 (Shinjuku),2012-09-10,16:01～17:00,0.0502,0.0436,0.0467,
新宿 (Shinjuku),2012-09-10,15:01～16:00,0.0519,0.0427,0.0464,
新宿 (Shinjuku),2012-09-10,14:01～15:00,0.0511,0.0434,0.0467,
新宿 (Shinjuku),2012-09-10,13:01～14:00,0.0506,0.0439,0.0467,
新宿 (Shinjuku),2012-09-10,12:01～13:00,0.0489,0.0429,0.0464,
新宿 (Shinjuku),2012-09-10,11:01～12:00,0.0497,0.0441,0.0469,
新宿 (Shinjuku),2012-09-10,10:01～11:00,0.0507,0.0439,0.0470,
新宿 (Shinjuku),2012-09-10,09:01～10:00,0.0502,0.0437,0.0470,
新宿 (Shinjuku),2012-09-10,08:01～09:00,0.0505,0.0444,0.0467,
新宿 (Shinjuku),2012-09-10,07:01～08:00,0.0507,0.0435,0.0469,
新宿 (Shinjuku),2012-09-10,06:01～07:00,0.0496,0.0423,0.0468,
新宿 (Shinjuku),2012-09-10,05:01～06:00,0.0506,0.0438,0.0467,
新宿 (Shinjuku),2012-09-10,04:01～05:00,0.0498,0.0426,0.0465,
新宿 (Shinjuku),2012-09-10,03:01～04:00,0.0506,0.0427,0.0464,
新宿 (Shinjuku),2012-09-10,02:01～03:00,0.0502,0.0424,0.0463,
新宿 (Shinjuku),2012-09-10,01:01～02:00,0.0494,0.0430,0.0465,
新宿 (Shinjuku),2012-09-10,00:01～01:00,0.0514,0.0431,0.0465,
